Regional Weather Roundup
Issued by NWS Pendleton, OR

Current Version | Previous Version | Text Only | Print | Product List | Glossary On
Versions: 1 2 3 4 5 6 7 8 9 10 11 12 13 14 15 16 17 18 19 20 21 22 23 24 25 26 27 28 29 30 31 32 33 34 35 36 37 38 39 40 41 42 43 44 45 46 47 48 49 50
000
ASUS46 KPDT 192110
RWRPDT
PENDLETON REGIONAL WEATHER ROUNDUP
NATIONAL WEATHER SERVICE PENDLETON OREGON
200 PM PDT SUN APR 19 2015

NOTE: FAIR INDICATES FEW OR NO CLOUDS BELOW 12,000 FEET WITH NO
SIGNIFICANT WEATHER AND/OR OBSTRUCTIONS TO VISIBILITY.

# INDICATES UNOFFICIAL STATION AND DATA

WAZ520-192210-
EAST SLOPES OF WASHINGTON CASCADES

CITY            SKY/WX      TMP DP  RH  WIND    PRES   REMARKS
#BULLFROG 2SW   N/A         66  32  28  N7      27.69F
#BUMPING DAM    N/A         63  N/A N/A S1      N/A
#CLE ELUM HS    N/A         69  29  22  NE2     30.04F
#CLE ELUM LAKE  N/A         66  32  28  SW3     30.03F
#CLIFFDEL 2NW   N/A         71  29  21  S1      N/A
#EASTON DOT     N/A         66  18  16  N5      N/A
#GLENWOOD       N/A         71  36  28  CALM    30.07F
#MANASTASH CYN  N/A         67  31  26  N1      30.07F
#NELSON         N/A         71  32  24  CALM    30.07F
#NELSON 3SW     N/A         65  31  28  CALM    30.28F
#NILE           N/A         68  31  25  NE2     29.32F
#PEOH POINT     N/A         60  25  26  E7      N/A
#RONALD 2NW     N/A         65  35  33  SW1     29.97F
#SNOWDEN        N/A         68  19  15  SE1     N/A
#SOUTH BLEWITT  N/A         66  29  25  CALM    N/A
#TEANAWAY 4NE   N/A         68  38  33  CALM    N/A
#TROUT LAKE 1NE N/A         69  36  30  E7      30.05F
$$

WAZ521-192210-
SIMCOE HIGHLANDS

CITY            SKY/WX      TMP DP  RH  WIND    PRES   REMARKS
#BICKLETON HS   N/A         62  27  26  E3      N/A
#CENTERVILLE 4W N/A         70  38  31  S6      29.84F
#CENTERVILLE 1SWN/A         66  38  36  SE8     30.05F
#GOLDENDALE     N/A         68  29  23  SE7     N/A
#GOLDENDALE 1NE N/A         69  29  22  SE5     N/A
#GOLDENDALE 5WNWN/A         69  38  32  S6      30.05F
#GOODNOE HILLS  N/A         72  30  21  SE6     N/A
#LYLE 6NE       N/A         68  39  35  SW2     30.03F
$$

WAZ026-192210-
KITTITAS VALLEY

CITY            SKY/WX      TMP DP  RH  WIND    PRES   REMARKS
ELLENSBURG AP   SUNNY       74  30  20  VRB6    30.09F
YTC-OPS AREA    SUNNY       62  24  23  N8      30.10F
#ELLENSBURG CWU N/A         70  30  22  S5      30.01F
#ELLENSBURG 3NE N/A         68  33  27  CALM    30.09F
#ELLENSBURG 1E  N/A         75  36  24  CALM    N/A
#KITTITAS 4N    N/A         70  38  31  NW2     28.41F
#KITTITAS 3S    N/A         68  34  28  CALM    30.07F
#THORP 6N       N/A         65  32  29  SE7     30.09F
$$

WAZ027-192210-
YAKIMA VALLEY

CITY            SKY/WX      TMP DP  RH  WIND    PRES   REMARKS
SUNNYSIDE AP    SUNNY       70  34  26  CALM    30.08F
YAKIMA AIRPORT  SUNNY       74  29  19  E5      30.08F
YAKIMA-VAGABOND SUNNY       72  28  19  SW8     30.08F
#DONALD 2NE     N/A         78   8   7  SE2     28.92F
#GRANDVIEW      N/A         72  32  23  N2      30.08F
#MABTON         N/A         70  38  31  N2      30.08F
#MOXEE 2E       N/A         52  18  26  NE2     30.09S
#NACHES 2SW     N/A         72  36  27  SE2     30.16S
#TERRACE HTS    N/A         74  35  24  S3      30.03F
#TOPPENISH      N/A         70  34  26  CALM    29.98F
#WAPATO 4NE     N/A         78   8   7  SE2     28.92F
#WEST VALLEY    N/A         70  33  25  CALM    30.05F
#W YAKIMA       N/A         72  34  25  W2      30.06F
#WHITE SWAN 5E  N/A         71  34  26  E3      30.07F
#WILEY CITY 3W  N/A         72  26  18  NE1     30.11F
$$

WAZ028-192210-
LOWER COLUMBIA BASIN...WASHINGTON

CITY            SKY/WX      TMP DP  RH  WIND    PRES   REMARKS
PASCO           SUNNY       72  36  27  CALM    30.09F
PROSSER AWOS    N/A         73  34  24  W3      30.10F
RICHLAND AWOS   SUNNY       73  32  22  CALM    30.08F
#BASIN CITY 5SW N/A         74  41  30  E1      30.09F
#BENTON CITY    N/A         71  38  30  N1      29.99F
#CONNELL 5N     N/A         72  31  22  NW2     30.08F
#CONNELL 5NW    N/A         70  34  26  CALM    30.04F
#ELTOPIA        N/A         76  35  22  CALM    30.04F
#ELTOPIA 6NW    N/A         71  41  34  E1      29.06F
#KAHLOTUS       N/A         69  29  22  E6      30.07F
#KENNEWICK      N/A         66  32  28  N7      27.69F
#KENNEWICK 3S   N/A         72  39  30  CALM    30.09F
#PATERSON       N/A         70  36  29  S1      30.06F
#PROSSER DOT    N/A         71  31  23  W5      N/A
#PROSSER        N/A         72  31  22  N3      30.07F
#SAGEMOOR 2W    N/A         73  42  33  CALM    29.93F
#TOUCHET 2S     N/A         72  41  33  NW3     30.06F
#WEST PASCO     N/A         72  41  33  CALM    30.11F
$$

WAZ029-192210-
FOOTHILLS OF THE BLUES...WASHINGTON

CITY            SKY/WX      TMP DP  RH  WIND    PRES   REMARKS
WALLA WALLA AP  SUNNY       71  31  23  W6      30.08F
#CLYDE 6NW      N/A         69  31  24  NW2     30.06F
#DAYTON SCHOOL  N/A         69  26  20  N2      30.10F
#LOWDEN 2SE     N/A         72  43  35  W2      30.04F
#PLEASANT VIEW 1N/A         69  29  22  N2      30.11F
#PRESCOTT       N/A         72  36  27  CALM    30.06F
#SUDBURY        N/A         74  N/A N/A CALM    N/A
#WHITMAN COLLEGEN/A         68  34  28  W5      30.11F
#WAITSBURG 5S   N/A         67  37  33  CALM    30.16F
#WAITSBURG 8N   N/A         77  22  13  S1      29.94S
#WALLA WALLA 5E N/A         70  40  34  NW2     N/A
#WALLA WALLA U  N/A         71  34  26  CALM    30.07F
#WHITMAN MISSIONN/A         70  39  32  NW1     30.09F
$$

WAZ030-192210-
BLUE MOUNTAINS...WASHINGTON

CITY            SKY/WX      TMP DP  RH  WIND    PRES   REMARKS
#DAYTON 8SE     N/A         70  35  28  W1      29.88F
#DIXIE 5SE      N/A         60  27  28  NW8     30.05F
$$

ORZ009-041-WAZ024-192210-
COLUMBIA RIVER GORGE

CITY            SKY/WX      TMP DP  RH  WIND    PRES   REMARKS
HOOD RIVER AP   SUNNY       73  36  26  N5      30.06F
THE DALLES AP   SUNNY       76  35  22  VRB3    30.06F
#ARLINGTON AIRPON/A         70  34  26  E3      29.97S
#CELILO DOT     N/A         72  42  34  CALM    N/A
#LYLE           N/A         73  39  29  S5      30.06F
#MARYHILL       N/A         70  33  25  SE1     N/A
#MOSIER 1S      N/A         75  28  18  E6      30.06F
#MURDOCK        N/A         74  41  30  W5      30.07F
#RUFUS DOT      N/A         69  41  36  S9      N/A

$$

ORZ510-192210-
NORTH CENTRAL OREGON

CITY            SKY/WX      TMP DP  RH  WIND    PRES   REMARKS
#CHENOWITH 1W   N/A         66  37  34  SE8     N/A
#COW CYN RST AREN/A         66  61  84  NE3     N/A
#DUFUR 9E       N/A         65  30  27  NE7     30.09F
#GRASS VALLEY 1SN/A         69  33  26  S3      30.08F
#KENT DOT       N/A         67  30  25  NE8     N/A
#MAUPIN SCHOOL  N/A         72  33  24  CALM    30.07F
#MORO SCHOOL    N/A         69  35  28  NE1     30.10F
#SHANIKO 5WSW   N/A         64  24  22  E8      N/A
#SHANIKO 4NW    N/A         66  24  20  NE6     30.12F
#TYGH VALLEY 2NEN/A         72  34  25  NE2     30.06F
#WAPANITIA AIRPON/A         68  33  27  E2      30.08F
#WASCO DOT      N/A         72  35  26  E10     N/A
#WASCO 5NE      N/A         70  34  26  E3      30.08F
$$

ORZ511-192210-
CENTRAL OREGON

CITY            SKY/WX      TMP DP  RH  WIND    PRES   REMARKS
BEND AIRPORT    N/A         N/A N/A N/A MISG    N/A
MADRAS AIRPORT  SUNNY       68  23  18  N3      30.10F
PRINEVILLE AP   SUNNY       68  23  18  VRB6    30.08F
REDMOND AIRPORT SUNNY       70  21  15  CALM    30.07F
#BEND 6E        N/A         69  14  12  CALM    29.96F
#BEND 1SW       N/A         68  21  17  NE3     N/A
#BEND-AWBREY    N/A         70  29  22  N3      30.02F
#BEND-KIM LN    N/A         71  27  19  NW1     30.05F
#CROOKED RVR RANN/A         66  32  28  E6      30.05F
#CULVER         N/A         67  28  23  NW3     30.05F
#LAKE BILLY CHINN/A         66  -7   5  N5      30.13F
#MADRAS         N/A         66  19  16  N3      N/A
#POWELL BUTTE 3EN/A         67  21  17  W2      N/A
#POWELL BUTTE   N/A         74  33  22  N2      29.70F
#PRINEVILLE 3N  N/A         70  30  22  W7      30.02F
#WARM SPRINGS   N/A         73  33  23  CALM    30.03F

$$


ORZ509-192210-
EAST SLOPES OF OREGON CASCADES

CITY            SKY/WX      TMP DP  RH  WIND    PRES   REMARKS
#BLUE BOX PASS  N/A         66   8  10  CALM    N/A
#CAMP SHERMAN   N/A         77  26  15  CALM    30.02F
#LA PINE 4NW    N/A         67  28  23  CALM    30.11F
#LAVA BUTTE DOT N/A         71  29  21  CALM    N/A
#SISTERS AIRPOR N/A         68  34  28  N6      30.17S
#SISTERS ODOT   N/A         69  N/A N/A NW2     N/A
#SISTERS 3N     N/A         67  29  24  CALM    30.10S
#SUNRIVER       N/A         67  11  11  SW2     29.96F
#TUMALO 3W      N/A         67  23  19  N5      29.90F
#WANOGA BUTTE D N/A         61  16  17  N1      N/A

$$

ORZ044-192210-
LOWER COLUMBIA BASIN...OREGON

CITY            SKY/WX      TMP DP  RH  WIND    PRES   REMARKS
HERMISTON       SUNNY       74  30  20  VRB5    30.07F
#BOARDMAN 8SW   N/A         71  39  31  N3      30.06F
#ECHO 8SW       N/A         72  39  30  NE1     30.09F
#IONE SCHOOL    N/A         71  27  19  CALM    30.04F
#IRRIGON 4NW    N/A         72  35  26  NE2     N/A
#UMATILLA SCHOOLN/A         76  41  28  CALM    30.10F
#UMATILLA       N/A         76  37  24  CALM    29.99F
$$

ORZ507-192210-
NORTHERN FOOTHILLS OF THE BLUES

CITY            SKY/WX      TMP DP  RH  WIND    PRES   REMARKS
PENDLETON AIRPT SUNNY       71  33  25  NW9     30.08F
#ADAMS 3WNW     N/A         70  34  26  CALM    30.06F
#ATHENA         N/A         67  29  24  E3      30.11F
#CAYUSE         N/A         69  35  28  N3      30.06F
#HELIX SCHOOL   N/A         68  30  24  VRB7    30.09F
#HELIX 3N       N/A         66  29  25  NE9     30.06F
#HOLDMAN 6E     N/A         69  31  24  N2      29.88F
#M-F FERNDALE   N/A         76  38  25  CALM    30.07F
#M-F GROVE ELEM N/A         69  32  25  CALM    30.07F
#M-FREEWATER 5SEN/A         68  39  35  NW2     30.08F
#PENDLETON DNTN N/A         77  37  24  NW3     30.08S
#PDT AQUATIC CTRN/A         74  40  29  NW2     30.09S
#PENDLETON 5NE  N/A         71  37  29  N2      30.04F
#PDT SUNRIDGE   N/A         72  35  26  CALM    30.09F
#PENDLETON 7NW  N/A         71  40  32  CALM    30.05F
#PILOT ROCK     N/A         68  31  25  N1      30.10F
#TUTUILLA       N/A         71  38  30  NE6     30.09F
#UMAPINE 2E     N/A         70  39  32  N1      30.05F
#WESTON SCHOOL  N/A         64  25  23  E3      30.07F

$$

ORZ508-192210-
SOUTHERN FOOTHILLS OF THE BLUES

CITY            SKY/WX      TMP DP  RH  WIND    PRES   REMARKS
LEXINGTON       PTCLDY      72  28  19  N12     30.10F
#AJAX           N/A         67  26  21  N7      30.03F
#CONDON SCHOOL  N/A         66  27  23  CALM    30.06F
#CONDON 5W      N/A         62  23  22  NE7     30.09F
#FOSSIL SCHOOL  N/A         68  30  24  N6      30.06S
#HEPPNER EOC    N/A         70  29  22  CALM    30.00F
#HEPPNER 4NE    N/A         64  29  27  E5      30.08F
#LEXINGTON 2SE  N/A         72  30  21  E5      30.05F
#MIKKALO        N/A         71  28  20  E6      30.08F
#OLEX 4N        N/A         69  32  25  E6      30.08F
#RUGGS 5NE      N/A         72  15  11  NE8     30.27S
#RUGGS 2SW      N/A         66  30  26  N2      30.08F

$$

ORZ502-503-192210-
BLUE MOUNTAINS

CITY            SKY/WX      TMP DP  RH  WIND    PRES   REMARKS
MEACHAM         SUNNY       62  28  27  VRB5    30.12F
#BATTLE MTN DOT N/A         60  39  46  N3      N/A
#HARDMAN 10S    N/A         63  28  26  CALM    30.19F
#HEPPNER 15SE   N/A         54  24  31  CALM    30.08S
#LADD CYN SMT   N/A         61  26  26  NW12    N/A
#LADD CREEK ODOTN/A         64  35  34  NE8     N/A
#LONG CREEK HS  N/A         58  28  32  CALM    30.07F
#N POWDER DOT   N/A         65  35  33  E7      N/A
#PIKES PEAK     N/A         59  37  44  N2      27.99S
#TOLLGATE       N/A         54  33  45  N3      30.06F
#TROY SCHOOL    N/A         72  37  28  E1      29.88F
#UKIAH          N/A         64  33  31  CALM    30.16F
#WESTON 4E      N/A         62  31  31  N3      30.03F
$$

ORZ505-192210-
JOHN DAY BASIN

CITY            SKY/WX      TMP DP  RH  WIND    PRES   REMARKS
JOHN DAY        SUNNY       66  28  24  W3      30.10F
#JOHN DAY KJDY  N/A         67  30  25  SW2     30.07F
#DAYVILLE SCHOOLN/A         68  25  20  N2      30.04F
#MITCHELL       N/A         68  38  33  W1      30.21F
#MITCHELL 8NW   N/A         65  27  24  NW2     30.00F
#MONUMENT HS    N/A         69  26  20  CALM    30.08F
#MT. VERNON 5SE N/A         63  27  25  NW1     30.06F
#WINLOCK        N/A         71  29  21  E3      30.17F
$$

ORZ506-192210-
OCHOCO AND JOHN DAY HIGHLANDS

CITY            SKY/WX      TMP DP  RH  WIND    PRES   REMARKS
#BUCK CREEK DOT N/A         68  68  100 SW5     N/A
#HORSE RIDGE DO N/A         67  14  13  N8      N/A
#KEYES SMT DOT  N/A         62  29  28  NW2     N/A
#PAULINA SCHOOL N/A         67  27  22  NE1     30.04F
#PINE MTN OBS   N/A         58  19  22  N5      N/A
#PRAIRIE CITY   N/A         68  27  21  SW3     29.96F
#SENECA         N/A         63  N/A N/A N5      N/A
#SENECA 9NW     N/A         64  21  19  NE1     30.10F
$$

ORZ049-192210-
GRANDE RONDE VALLEY

CITY            SKY/WX      TMP DP  RH  WIND    PRES   REMARKS
LA GRANDE       SUNNY       66  28  24  CALM    30.08F
#COVE           N/A         62  41  46  W2      30.10F
#COVE SCHOOL    N/A         64  36  35  CALM    30.06F
#ELGIN 3N       N/A         68  31  25  CALM    30.05F
#ELGIN 1E       N/A         67  32  27  NW1     N/A
#IMBLER SCHOOL  N/A         66  31  27  N3      30.04F
#ISLAND CITY 4N N/A         71  50  47  SE2     30.03F
#LADD CYN DOT   N/A         66  34  30  N3      N/A
#LA GRANDE ELEM N/A         66  28  24  E2      30.09F
#UNION 1S       N/A         64  37  37  N5      30.00F
$$

ORZ050-192210-
WALLOWA COUNTY

CITY            SKY/WX      TMP DP  RH  WIND    PRES   REMARKS
#ENTERPRISE HS  N/A         64  29  27  SE1     30.09F
#IMNAHA SCHOOL  N/A         71  27  19  S1      30.05F
#IMNAHA 10S     N/A         66  31  27  E5      30.06F
#JOSEPH 3N      N/A         61  31  32  N5      30.11F
#JOSEPH 3W      N/A         59  19  21  SE2     29.96F
#LOSTINE        N/A         67  28  23  W1      29.88F
#MT HOWARD 8000 N/A         42  19  39  W5      30.20F
#PROMISE 1S     N/A         62  32  32  NW1     30.16F
#SHEEP RDG 7000 N/A         45  20  36  CALM    30.16S
#WALLOWA SCHOOL N/A         68  29  23  CALM    31.02F



$$



USA.gov is the U.S. government's official web portal to all federal, state and local government web resources and services.